TimeEST,TemperatureF,Dew PointF,Humidity,Sea Level PressureIn,VisibilityMPH,Wind Direction,Wind SpeedMPH,Gust SpeedMPH,PrecipitationIn,Events,Conditions,WindDirDegrees,DateUTC
12:15 AM,28.4,28.4,100,30.19,10.0,Calm,Calm,-,N/A,,Clear,0,2012-12-12 05:15:00
12:35 AM,28.4,28.4,100,30.19,10.0,Calm,Calm,-,N/A,,Clear,0,2012-12-12 05:35:00
12:55 AM,28.4,28.4,100,30.19,10.0,Calm,Calm,-,N/A,,Clear,0,2012-12-12 05:55:00
1:15 AM,28.4,28.4,100,30.20,10.0,West,3.5,-,N/A,,Clear,270,2012-12-12 06:15:00
1:35 AM,28.4,28.4,100,30.20,10.0,Calm,Calm,-,N/A,,Clear,0,2012-12-12 06:35:00
1:55 AM,28.4,28.4,100,30.21,10.0,Calm,Calm,-,N/A,,Clear,0,2012-12-12 06:55:00
2:15 AM,28.4,28.4,100,30.22,10.0,Calm,Calm,-,N/A,,Clear,0,2012-12-12 07:15:00
2:35 AM,28.4,28.4,100,30.22,10.0,Calm,Calm,-,N/A,,Clear,0,2012-12-12 07:35:00
2:55 AM,30.2,28.4,93,30.22,10.0,Calm,Calm,-,N/A,,Scattered Clouds,0,2012-12-12 07:55:00
3:15 AM,30.2,28.4,93,30.22,10.0,Calm,Calm,-,N/A,,Overcast,0,2012-12-12 08:15:00
3:35 AM,30.2,28.4,93,30.23,10.0,Calm,Calm,-,N/A,,Overcast,0,2012-12-12 08:35:00
3:55 AM,30.2,30.2,100,30.22,10.0,Calm,Calm,-,N/A,,Overcast,0,2012-12-12 08:55:00
4:15 AM,30.2,30.2,100,30.23,10.0,Calm,Calm,-,N/A,,Overcast,0,2012-12-12 09:15:00
4:35 AM,32.0,30.2,93,30.23,10.0,Calm,Calm,-,N/A,,Overcast,0,2012-12-12 09:35:00
4:55 AM,32.0,28.4,87,30.24,10.0,Calm,Calm,-,N/A,,Overcast,0,2012-12-12 09:55:00
5:15 AM,32.0,30.2,93,30.24,10.0,Calm,Calm,-,N/A,,Overcast,0,2012-12-12 10:15:00
5:35 AM,33.8,30.2,87,30.25,10.0,Calm,Calm,-,N/A,,Overcast,0,2012-12-12 10:35:00
5:55 AM,32.0,30.2,93,30.26,10.0,Calm,Calm,-,N/A,,Overcast,0,2012-12-12 10:55:00
6:15 AM,33.8,30.2,87,30.27,10.0,Calm,Calm,-,N/A,,Mostly Cloudy,0,2012-12-12 11:15:00
6:35 AM,32.0,30.2,93,30.28,10.0,Calm,Calm,-,N/A,,Mostly Cloudy,0,2012-12-12 11:35:00
6:55 AM,30.2,30.2,100,30.29,10.0,Calm,Calm,-,N/A,,Scattered Clouds,0,2012-12-12 11:55:00
7:15 AM,30.2,30.2,100,30.29,10.0,Calm,Calm,-,N/A,,Mostly Cloudy,0,2012-12-12 12:15:00
7:35 AM,30.2,30.2,100,30.30,10.0,Calm,Calm,-,N/A,,Overcast,0,2012-12-12 12:35:00
7:55 AM,32.0,30.2,93,30.30,10.0,Calm,Calm,-,N/A,,Overcast,0,2012-12-12 12:55:00
8:15 AM,33.8,30.2,87,30.31,10.0,Calm,Calm,-,N/A,,Overcast,0,2012-12-12 13:15:00
8:35 AM,33.8,32.0,93,30.31,10.0,Calm,Calm,-,N/A,,Overcast,0,2012-12-12 13:35:00
8:55 AM,35.6,30.2,81,30.32,10.0,Calm,Calm,-,N/A,,Overcast,0,2012-12-12 13:55:00
9:15 AM,35.6,30.2,81,30.32,10.0,NE,4.6,-,N/A,,Overcast,50,2012-12-12 14:15:00
9:35 AM,35.6,30.2,81,30.32,10.0,NE,3.5,-,N/A,,Overcast,40,2012-12-12 14:35:00
9:55 AM,37.4,30.2,75,30.33,10.0,ENE,3.5,-,N/A,,Mostly Cloudy,60,2012-12-12 14:55:00
10:15 AM,37.4,30.2,75,30.32,10.0,East,4.6,-,N/A,,Scattered Clouds,80,2012-12-12 15:15:00
10:35 AM,39.2,32.0,75,30.33,10.0,East,4.6,-,N/A,,Scattered Clouds,80,2012-12-12 15:35:00
10:55 AM,37.4,30.2,75,30.33,10.0,East,3.5,-,N/A,,Scattered Clouds,90,2012-12-12 15:55:00
11:15 AM,39.2,32.0,75,30.33,10.0,East,5.8,-,N/A,,Clear,90,2012-12-12 16:15:00
11:35 AM,39.2,32.0,75,30.33,10.0,ENE,4.6,-,N/A,,Clear,70,2012-12-12 16:35:00
11:55 AM,39.2,32.0,75,30.32,10.0,ENE,4.6,-,N/A,,Clear,70,2012-12-12 16:55:00
12:15 PM,39.2,32.0,75,30.31,10.0,ENE,5.8,-,N/A,,Clear,70,2012-12-12 17:15:00
12:35 PM,39.2,32.0,75,30.30,10.0,East,3.5,-,N/A,,Clear,90,2012-12-12 17:35:00
12:55 PM,41.0,32.0,70,30.30,10.0,NE,3.5,-,N/A,,Clear,40,2012-12-12 17:55:00
1:15 PM,41.0,33.8,76,30.29,10.0,East,6.9,-,N/A,,Clear,90,2012-12-12 18:15:00
1:35 PM,41.0,32.0,70,30.29,10.0,East,5.8,-,N/A,,Clear,90,2012-12-12 18:35:00
1:55 PM,41.0,33.8,76,30.29,10.0,East,4.6,-,N/A,,Clear,80,2012-12-12 18:55:00
2:15 PM,42.8,33.8,70,30.29,10.0,NE,4.6,-,N/A,,Clear,40,2012-12-12 19:15:00
2:35 PM,42.8,33.8,70,30.30,10.0,ENE,3.5,-,N/A,,Clear,60,2012-12-12 19:35:00
2:55 PM,41.0,33.8,76,30.29,10.0,ENE,4.6,-,N/A,,Clear,60,2012-12-12 19:55:00
3:15 PM,41.0,33.8,76,30.28,10.0,ENE,5.8,-,N/A,,Clear,70,2012-12-12 20:15:00
3:35 PM,41.0,32.0,70,30.28,10.0,ENE,3.5,-,N/A,,Clear,70,2012-12-12 20:35:00
3:55 PM,39.2,32.0,75,30.29,10.0,East,3.5,-,N/A,,Clear,90,2012-12-12 20:55:00
4:15 PM,39.2,32.0,75,30.29,10.0,ENE,4.6,-,N/A,,Clear,70,2012-12-12 21:15:00
4:35 PM,39.2,32.0,75,30.29,10.0,NE,4.6,-,N/A,,Clear,50,2012-12-12 21:35:00
4:55 PM,39.2,32.0,75,30.30,10.0,Calm,Calm,-,N/A,,Clear,0,2012-12-12 21:55:00
5:15 PM,39.2,32.0,75,30.31,10.0,NE,3.5,-,N/A,,Scattered Clouds,50,2012-12-12 22:15:00
5:35 PM,39.2,32.0,75,30.30,10.0,NE,3.5,-,N/A,,Scattered Clouds,40,2012-12-12 22:35:00
5:55 PM,39.2,32.0,75,30.30,10.0,NE,4.6,-,N/A,,Scattered Clouds,50,2012-12-12 22:55:00
6:15 PM,39.2,32.0,75,30.31,10.0,ENE,4.6,-,N/A,,Scattered Clouds,60,2012-12-12 23:15:00
6:35 PM,39.2,32.0,75,30.31,10.0,NE,4.6,-,N/A,,Scattered Clouds,40,2012-12-12 23:35:00
6:55 PM,39.2,32.0,75,30.31,10.0,NE,4.6,-,N/A,,Clear,40,2012-12-12 23:55:00
7:15 PM,39.2,32.0,75,30.32,10.0,Calm,Calm,-,N/A,,Clear,0,2012-12-13 00:15:00
7:35 PM,37.4,32.0,81,30.32,10.0,NE,3.5,-,N/A,,Clear,50,2012-12-13 00:35:00
7:55 PM,37.4,32.0,81,30.33,10.0,Calm,Calm,-,N/A,,Scattered Clouds,0,2012-12-13 00:55:00
8:15 PM,37.4,32.0,81,30.33,10.0,NE,3.5,-,N/A,,Scattered Clouds,50,2012-12-13 01:15:00
8:35 PM,37.4,32.0,81,30.33,10.0,Calm,Calm,-,N/A,,Clear,0,2012-12-13 01:35:00
8:55 PM,37.4,32.0,81,30.33,10.0,NE,4.6,-,N/A,,Clear,40,2012-12-13 01:55:00
9:15 PM,37.4,32.0,81,30.32,10.0,NE,4.6,-,N/A,,Clear,50,2012-12-13 02:15:00
9:35 PM,33.8,30.2,87,30.33,10.0,Calm,Calm,-,N/A,,Clear,0,2012-12-13 02:35:00
9:55 PM,33.8,30.2,87,30.33,10.0,Calm,Calm,-,N/A,,Clear,0,2012-12-13 02:55:00
10:15 PM,33.8,30.2,87,30.34,10.0,Calm,Calm,-,N/A,,Clear,0,2012-12-13 03:15:00
10:35 PM,35.6,30.2,81,30.33,10.0,East,5.8,-,N/A,,Scattered Clouds,90,2012-12-13 03:35:00
10:55 PM,35.6,30.2,81,30.33,10.0,East,3.5,-,N/A,,Scattered Clouds,90,2012-12-13 03:55:00
11:15 PM,35.6,30.2,81,30.31,10.0,NE,3.5,-,N/A,,Clear,50,2012-12-13 04:15:00
11:35 PM,35.6,30.2,81,30.31,10.0,East,3.5,-,N/A,,Clear,80,2012-12-13 04:35:00
11:55 PM,33.8,30.2,87,30.32,10.0,ENE,3.5,-,N/A,,Clear,70,2012-12-13 04:55:00